TimeAST,TemperatureF,Dew PointF,Humidity,Sea Level PressureIn,VisibilityMPH,Wind Direction,Wind SpeedMPH,Gust SpeedMPH,PrecipitationIn,Events,Conditions,WindDirDegrees,DateUTC
12:00 AM,78.8,77.0,94,29.86,6.2,Calm,Calm,-,N/A,,Partly Cloudy,0,2012-11-08 04:00:00
1:00 AM,78.8,75.2,89,29.86,6.2,Calm,Calm,-,N/A,,Partly Cloudy,0,2012-11-08 05:00:00
2:00 AM,78.8,75.2,89,29.83,6.2,Calm,Calm,-,N/A,,Scattered Clouds,0,2012-11-08 06:00:00
3:00 AM,79,75,85,29.85,9,Calm,Calm,,,,Scattered Clouds,,2012-11-08 07:00:00
3:00 AM,78.8,77.0,94,29.83,6.2,Calm,Calm,-,N/A,,Scattered Clouds,0,2012-11-08 07:00:00
4:00 AM,78.8,77.0,94,29.83,6.2,Calm,Calm,-,N/A,,Scattered Clouds,0,2012-11-08 08:00:00
5:00 AM,78,76,92,29.84,11,Calm,Calm,,,,Partly Cloudy,,2012-11-08 09:00:00
5:00 AM,78.8,77.0,94,29.83,6.2,Calm,Calm,-,N/A,,Scattered Clouds,0,2012-11-08 09:00:00
6:00 AM,78.8,77.0,94,29.86,6.2,Calm,Calm,-,N/A,,Scattered Clouds,0,2012-11-08 10:00:00
7:00 AM,82.4,78.8,89,29.89,6.2,Calm,Calm,-,N/A,,Scattered Clouds,0,2012-11-08 11:00:00
7:05 AM,82.4,78.8,89,29.89,6.2,Calm,Calm,-,N/A,,Scattered Clouds,0,2012-11-08 11:05:00
8:00 AM,85,79,78,29.91,4,East,9.2,,,,Partly Cloudy,80,2012-11-08 12:00:00
8:00 AM,86.0,78.8,79,29.89,6.2,East,9.2,-,N/A,,Scattered Clouds,80,2012-11-08 12:00:00
9:00 AM,87.8,78.8,75,29.92,6.2,East,10.4,-,N/A,,Scattered Clouds,90,2012-11-08 13:00:00
10:00 AM,86.0,78.8,79,29.92,6.2,East,10.4,-,N/A,,Scattered Clouds,80,2012-11-08 14:00:00
11:00 AM,89,76,57,29.91,11,East,11.5,,,,Widespread Dust,100,2012-11-08 15:00:00
11:00 AM,89.6,75.2,62,29.89,6.2,East,11.5,-,N/A,,Scattered Clouds,100,2012-11-08 15:00:00
12:00 PM,89.6,78.8,70,29.86,6.2,SE,15.0,-,N/A,,Scattered Clouds,130,2012-11-08 16:00:00
1:00 PM,89.6,78.8,70,29.83,6.2,Variable,2.3,-,N/A,,Scattered Clouds,0,2012-11-08 17:00:00
2:00 PM,85,78,75,29.85,9,SE,16.1,,,,Mostly Cloudy,130,2012-11-08 18:00:00
2:00 PM,86.0,78.8,79,29.83,6.2,SE,16.1,-,N/A,,Scattered Clouds,130,2012-11-08 18:00:00
3:00 PM,80.6,77.0,89,29.83,6.2,ESE,11.5,-,N/A,,Scattered Clouds,120,2012-11-08 19:00:00
4:00 PM,84.2,77.0,79,29.83,6.2,East,9.2,-,N/A,,Scattered Clouds,90,2012-11-08 20:00:00
5:00 PM,80,78,91,29.86,9,SSE,13.8,,,,Mostly Cloudy,160,2012-11-08 21:00:00
5:00 PM,80.6,78.8,94,29.86,6.2,SSE,13.8,-,N/A,,Scattered Clouds,160,2012-11-08 21:00:00
6:00 PM,80.6,77.0,89,29.83,6.2,ESE,11.5,-,N/A,,Scattered Clouds,120,2012-11-08 22:00:00
7:00 PM,78.8,77.0,94,29.83,6.2,East,9.2,-,N/A,,Scattered Clouds,100,2012-11-08 23:00:00
8:00 PM,79,76,89,29.86,12,ENE,3.5,,,,Widespread Dust,60,2012-11-09 00:00:00
8:00 PM,78.8,77.0,94,29.86,6.2,ENE,3.5,-,N/A,,Scattered Clouds,60,2012-11-09 00:00:00
9:00 PM,78.8,77.0,94,29.86,6.2,Calm,Calm,-,N/A,,Scattered Clouds,0,2012-11-09 01:00:00
10:00 PM,78.8,77.0,94,29.86,6.2,Calm,Calm,-,N/A,,Partly Cloudy,0,2012-11-09 02:00:00
11:00 PM,78,75,89,29.87,12,Calm,Calm,,,,Widespread Dust,,2012-11-09 03:00:00
11:00 PM,78.8,75.2,89,29.86,6.2,Calm,Calm,-,N/A,,Partly Cloudy,0,2012-11-09 03:00:00